• In Belarus
  • List of Countries
  • For 7 days
  • Water Temperature
  • Satellite Maps
  • Weather Map
  • Weather Widgets
  • user-avatar
    Login

    Hourly Weather Eisenstadt

    Today, 22 October, Monday

    Time Temperature Precipitation Wind Pressure Humidity
    00:00 +5°C° 0 mm 3 mps 729 mmHg 75%
    01:00 +5°C° 0 mm 3 mps 729 mmHg 75%
    02:00 +5°C° 0 mm 3 mps 729 mmHg 75%
    03:00 +5°C° 0 mm 3 mps 729 mmHg 76%
    04:00 +5°C° 0 mm 3 mps 729 mmHg 76%
    05:00 +6°C° 0 mm 2 mps 729 mmHg 78%
    06:00 +5°C° 0 mm 2 mps 729 mmHg 79%
    07:00 +5°C° 0 mm 2 mps 729 mmHg 81%
    08:00 +7°C° 0 mm 2 mps 729 mmHg 74%
    09:00 +9°C° 0 mm 2 mps 729 mmHg 67%
    10:00 +10°C° 0 mm 2 mps 729 mmHg 61%
    11:00 +12°C° 0 mm 2 mps 729 mmHg 58%
    12:00 +13°C° 0 mm 2 mps 728 mmHg 55%
    13:00 +15°C° 0 mm 2 mps 728 mmHg 52%
    14:00 +14°C° 0 mm 2 mps 728 mmHg 54%
    15:00 +14°C° 0 mm 2 mps 728 mmHg 57%
    16:00 +13°C° 0 mm 2 mps 727 mmHg 59%
    17:00 +12°C° 0 mm 2 mps 728 mmHg 64%
    18:00 +9°C° 0 mm 2 mps 728 mmHg 69%
    19:00 +8°C° 0 mm 2 mps 728 mmHg 74%
    20:00 +8°C° 0 mm 2 mps 728 mmHg 75%
    21:00 +7°C° 0 mm 2 mps 729 mmHg 76%
    22:00 +7°C° 0 mm 2 mps 729 mmHg 77%
    23:00 +7°C° 0 mm 2 mps 729 mmHg 77%

    Tomorrow, 23 October, Tuesday

    Time Temperature Precipitation Wind Pressure Humidity
    00:00 +7°C° 0 mm 3 mps 729 mmHg 78%
    01:00 +7°C° 0 mm 3 mps 729 mmHg 78%
    02:00 +7°C° 0 mm 3 mps 729 mmHg 78%
    03:00 +7°C° 0 mm 3 mps 728 mmHg 78%
    04:00 +7°C° 0 mm 3 mps 728 mmHg 78%
    05:00 +7°C° 0 mm 3 mps 728 mmHg 79%
    06:00 +7°C° 0 mm 3 mps 728 mmHg 79%
    07:00 +7°C° 0 mm 3 mps 728 mmHg 79%
    08:00 +9°C° 0 mm 3 mps 728 mmHg 73%
    09:00 +10°C° 0 mm 3 mps 728 mmHg 66%
    10:00 +12°C° 0 mm 4 mps 728 mmHg 59%
    11:00 +13°C° 0 mm 4 mps 727 mmHg 56%
    12:00 +14°C° 0 mm 4 mps 727 mmHg 52%
    13:00 +14°C° 0 mm 4 mps 726 mmHg 49%
    14:00 +14°C° 0 mm 4 mps 726 mmHg 51%
    15:00 +13°C° 0 mm 4 mps 725 mmHg 53%
    16:00 +13°C° 0 mm 3 mps 724 mmHg 55%
    17:00 +12°C° 0 mm 3 mps 724 mmHg 59%
    18:00 +11°C° 0 mm 4 mps 724 mmHg 62%
    19:00 +10°C° 0 mm 4 mps 724 mmHg 66%
    20:00 +10°C° 0 mm 4 mps 724 mmHg 67%
    21:00 +10°C° 0 mm 4 mps 723 mmHg 68%
    22:00 +9°C° 0 mm 5 mps 723 mmHg 69%
    23:00 +8°C° 0 mm 5 mps 722 mmHg 70%

    Day after tomorrow, 24 October, Wednesday

    Time Temperature Precipitation Wind Pressure Humidity
    00:00 +8°C° 0 mm 5 mps 722 mmHg 70%
    01:00 +8°C° 0 mm 5 mps 721 mmHg 71%
    02:00 +8°C° 0 mm 5 mps 721 mmHg 71%
    03:00 +8°C° 0 mm 5 mps 720 mmHg 70%
    04:00 +8°C° 0 mm 6 mps 720 mmHg 70%
    05:00 +9°C° 0 mm 6 mps 719 mmHg 68%
    06:00 +9°C° 0 mm 7 mps 719 mmHg 67%
    07:00 +9°C° 0 mm 7 mps 718 mmHg 66%
    08:00 +11°C° 0.2 mm 8 mps 718 mmHg 64%
    09:00 +12°C° 0.2 mm 9 mps 719 mmHg 61%
    10:00 +13°C° 0.2 mm 10 mps 719 mmHg 58%
    11:00 +13°C° 0.9 mm 10 mps 719 mmHg 61%
    12:00 +12°C° 0.9 mm 10 mps 719 mmHg 63%
    13:00 +12°C° 0.9 mm 9 mps 719 mmHg 66%
    14:00 +12°C° 0.5 mm 8 mps 720 mmHg 67%
    15:00 +11°C° 0.5 mm 7 mps 720 mmHg 68%
    16:00 +11°C° 0.5 mm 7 mps 720 mmHg 69%
    17:00 +10°C° 0.1 mm 6 mps 721 mmHg 69%
    18:00 +10°C° 0.1 mm 6 mps 722 mmHg 70%
    19:00 +9°C° 0.1 mm 6 mps 722 mmHg 71%
    20:00 +9°C° 0.1 mm 6 mps 723 mmHg 72%
    21:00 +8°C° 0.1 mm 5 mps 723 mmHg 72%
    22:00 +8°C° 0.1 mm 5 mps 723 mmHg 73%
    23:00 +8°C° 0.2 mm 4 mps 723 mmHg 76%

    25 October, Thursday

    Time Temperature Precipitation Wind Pressure Humidity
    00:00 +8°C° 0.2 mm 4 mps 723 mmHg 78%
    01:00 +9°C° 0.2 mm 3 mps 723 mmHg 80%
    02:00 +9°C° 0.2 mm 3 mps 723 mmHg 82%
    03:00 +9°C° 0.2 mm 3 mps 723 mmHg 84%
    04:00 +9°C° 0.2 mm 3 mps 723 mmHg 86%
    05:00 +9°C° 0.1 mm 3 mps 723 mmHg 86%
    06:00 +9°C° 0.1 mm 3 mps 723 mmHg 85%
    07:00 +8°C° 0.1 mm 4 mps 723 mmHg 85%
    08:00 +11°C° 0 mm 4 mps 722 mmHg 79%
    09:00 +12°C° 0 mm 4 mps 722 mmHg 73%
    10:00 +13°C° 0 mm 5 mps 722 mmHg 67%
    11:00 +14°C° 0 mm 5 mps 722 mmHg 63%
    12:00 +15°C° 0 mm 5 mps 722 mmHg 59%
    13:00 +15°C° 0 mm 5 mps 721 mmHg 55%
    14:00 +15°C° 0 mm 5 mps 721 mmHg 57%
    15:00 +14°C° 0 mm 4 mps 721 mmHg 59%
    16:00 +14°C° 0 mm 4 mps 721 mmHg 61%
    17:00 +13°C° 0 mm 3 mps 721 mmHg 66%
    18:00 +11°C° 0 mm 3 mps 721 mmHg 71%
    19:00 +10°C° 0 mm 3 mps 722 mmHg 76%
    20:00 +9°C° 0 mm 3 mps 722 mmHg 78%
    21:00 +9°C° 0 mm 3 mps 722 mmHg 80%
    22:00 +9°C° 0 mm 3 mps 722 mmHg 81%
    23:00 +8°C° 0 mm 2 mps 722 mmHg 82%

    26 October, Friday

    Time Temperature Precipitation Wind Pressure Humidity
    00:00 +8°C° 0 mm 2 mps 722 mmHg 82%
    01:00 +8°C° 0 mm 2 mps 722 mmHg 83%
    02:00 +7°C° 0 mm 2 mps 721 mmHg 84%
    03:00 +8°C° 0 mm 1 mps 721 mmHg 85%
    04:00 +8°C° 0 mm 1 mps 721 mmHg 87%
    05:00 +8°C° 0 mm 1 mps 721 mmHg 87%
    06:00 +8°C° 0 mm 1 mps 721 mmHg 86%
    07:00 +8°C° 0 mm 1 mps 721 mmHg 86%
    08:00 +8°C° 0 mm 2 mps 721 mmHg 80%
    09:00 +10°C° 0 mm 2 mps 720 mmHg 73%
    10:00 +11°C° 0 mm 3 mps 720 mmHg 67%
    11:00 +12°C° 0 mm 3 mps 720 mmHg 64%
    12:00 +13°C° 0 mm 3 mps 719 mmHg 61%
    13:00 +14°C° 0 mm 4 mps 718 mmHg 59%
    14:00 +14°C° 0 mm 3 mps 718 mmHg 63%
    15:00 +14°C° 0 mm 3 mps 717 mmHg 66%
    16:00 +13°C° 0 mm 3 mps 717 mmHg 70%
    17:00 +12°C° 0 mm 3 mps 716 mmHg 76%
    18:00 +11°C° 0 mm 3 mps 716 mmHg 82%
    19:00 +10°C° 0 mm 2 mps 716 mmHg 88%
    20:00 +10°C° 0 mm 2 mps 716 mmHg 88%
    21:00 +10°C° 0 mm 2 mps 715 mmHg 88%
    22:00 +10°C° 0 mm 3 mps 715 mmHg 89%
    23:00 +10°C° 0 mm 3 mps 715 mmHg 89%

    27 October, Saturday

    Time Temperature Precipitation Wind Pressure Humidity
    00:00 +10°C° 0 mm 2 mps 715 mmHg 89%
    01:00 +9°C° 0 mm 2 mps 715 mmHg 90%
    02:00 +9°C° 0 mm 2 mps 714 mmHg 90%
    03:00 +9°C° 0 mm 2 mps 714 mmHg 90%
    04:00 +9°C° 0 mm 2 mps 714 mmHg 90%
    05:00 +9°C° 0 mm 2 mps 713 mmHg 89%
    06:00 +10°C° 0 mm 3 mps 713 mmHg 88%
    07:00 +10°C° 0 mm 3 mps 713 mmHg 87%
    08:00 +12°C° 0 mm 5 mps 712 mmHg 81%
    09:00 +14°C° 0 mm 6 mps 712 mmHg 74%
    10:00 +16°C° 0 mm 8 mps 712 mmHg 68%
    11:00 +17°C° 0 mm 8 mps 711 mmHg 62%
    12:00 +18°C° 0 mm 8 mps 711 mmHg 57%
    13:00 +19°C° 0 mm 9 mps 710 mmHg 51%
    14:00 +18°C° 0 mm 8 mps 710 mmHg 54%
    15:00 +17°C° 0 mm 6 mps 710 mmHg 56%
    16:00 +16°C° 0 mm 5 mps 709 mmHg 59%
    17:00 +16°C° 0.8 mm 5 mps 709 mmHg 65%
    18:00 +15°C° 0.8 mm 5 mps 709 mmHg 72%
    19:00 +14°C° 0.8 mm 5 mps 709 mmHg 78%
    20:00 +13°C° 1 mm 5 mps 709 mmHg 79%
    21:00 +13°C° 1 mm 4 mps 708 mmHg 80%
    22:00 +13°C° 1 mm 4 mps 708 mmHg 80%
    23:00 +12°C° 3.2 mm 4 mps 708 mmHg 81%

    28 October, Sunday

    Time Temperature Precipitation Wind Pressure Humidity
    00:00 +11°C° 3.2 mm 4 mps 709 mmHg 83%
    01:00 +9°C° 3.2 mm 5 mps 709 mmHg 84%
    02:00 +8°C° 0.9 mm 4 mps 709 mmHg 83%
    03:00 +9°C° 0.9 mm 3 mps 710 mmHg 83%
    04:00 +8°C° 0.9 mm 2 mps 711 mmHg 82%
    05:00 +8°C° 0 mm 2 mps 711 mmHg 82%
    06:00 +7°C° 0 mm 2 mps 712 mmHg 82%
    07:00 +7°C° 0 mm 2 mps 713 mmHg 81%
    08:00 +8°C° 0 mm 2 mps 713 mmHg 79%
    09:00 +8°C° 0 mm 2 mps 714 mmHg 76%
    10:00 +9°C° 0 mm 2 mps 715 mmHg 74%
    11:00 +9°C° 0 mm 2 mps 715 mmHg 72%
    12:00 +10°C° 0 mm 2 mps 715 mmHg 70%
    13:00 +10°C° 0 mm 2 mps 715 mmHg 69%
    14:00 +10°C° 0 mm 2 mps 716 mmHg 70%
    15:00 +10°C° 0 mm 2 mps 716 mmHg 72%
    16:00 +9°C° 0 mm 2 mps 716 mmHg 74%
    17:00 +8°C° 0 mm 2 mps 716 mmHg 76%
    18:00 +7°C° 0 mm 2 mps 717 mmHg 79%
    19:00 +7°C° 0 mm 2 mps 717 mmHg 81%
    20:00 +7°C° 0 mm 2 mps 717 mmHg 81%
    21:00 +6°C° 0 mm 2 mps 717 mmHg 81%
    22:00 +6°C° 0 mm 2 mps 717 mmHg 81%
    23:00 +6°C° 0 mm 2 mps 717 mmHg 81%
    Show more